EHI
20 22 23 19 13 9 6 5 5 5 5 4 2 1 1 1 0 0 0 1 2 2 1 0 0 0 0 0 0 0 0 0 0 0 0 0 0 0 0 0 0 0 0
21 22 22 19 14 10 8 6 5 5 5 5 4 2 2 1 0 0 1 1 1 1 0 0 0 0 0 0 0 0 0 0 0 0 0 0 0 0 0 0 0 0 0
21 20 19 17 15 13 10 8 6 5 4 4 4 4 2 1 0 0 1 1 0 0 0 0 0 0 0 0 0 0 0 0 0 0 0 0 0 0 0 0 0 0 0
18 16 16 18 18 16 13 10 7 5 3 3 3 4 3 1 0 0 1 1 0 0 0 0 0 0 0 0 0 0 0 0 0 0 0 0 0 0 0 0 0 0 0
15 13 16 21 22 19 15 11 7 5 4 3 3 4 3 2 1 0 0 0 0 0 0 0 0 0 0 0 0 0 0 0 0 0 0 0 0 0 0 0 0 0 0
14 13 18 23 24 21 17 13 8 4 3 3 3 4 3 3 2 1 1 1 0 0 0 0 0 0 0 0 0 0 0 0 0 0 0 0 0 0 0 0 0 0 0
14 14 18 23 23 21 19 15 9 5 3 3 3 3 3 3 3 3 2 2 1 1 0 0 0 0 0 0 0 0 0 0 0 0 0 0 0 0 0 0 0 0 0
15 16 18 20 20 19 18 15 11 6 3 2 2 2 2 2 2 2 2 2 2 1 0 0 0 0 0 0 0 0 0 0 0 0 0 0 0 1 0 0 0 0 0
18 18 17 16 15 14 13 12 10 5 2 1 1 1 1 1 1 1 1 1 1 1 0 0 0 0 0 0 0 0 0 0 0 0 0 0 0 0 0 0 0 0 0
20 20 17 13 10 9 7 6 5 2 0 0 0 0 0 0 0 0 0 0 0 0 0 0 0 0 0 0 0 0 0 0 0 0 0 0 0 0 0 0 0 0 0
18 19 17 13 9 7 5 3 1 0 0 0 0 0 0 0 0 0 0 0 0 0 0 0 0 0 0 0 0 0 0 0 0 0 0 0 0 0 0 0 0 0 0
13 15 16 13 10 8 6 4 1 0 0 0 0 0 0 0 0 0 0 0 0 0 0 0 0 0 0 0 0 0 0 0 0 0 0 0 0 0 0 0 0 0 0
9 11 13 13 10 8 7 6 3 1 0 0 0 0 0 0 0 0 0 0 0 0 0 0 0 0 0 0 0 0 0 0 0 0 0 0 0 0 0 0 0 0 0
8 9 11 12 12 9 6 5 4 2 1 0 0 0 0 0 0 0 0 0 0 0 0 0 0 0 0 0 0 0 0 0 0 0 0 0 0 0 0 0 0 0 0
7 8 10 14 14 11 7 5 4 3 1 0 0 0 0 0 0 0 0 0 0 0 0 0 0 0 0 0 0 0 0 0 0 0 0 0 0 0 0 0 0 0 0
7 8 10 13 14 12 9 7 6 4 1 0 0 1 1 1 1 0 0 0 0 0 0 0 0 0 0 0 0 0 0 0 0 0 0 0 0 0 0 0 0 0 0
7 8 10 11 11 10 10 8 7 5 2 0 0 1 2 2 2 1 1 0 0 0 0 0 0 0 0 0 0 0 0 0 0 0 0 0 0 0 0 0 0 0 0
7 8 9 9 9 9 8 7 7 6 2 0 0 1 1 2 3 3 2 1 0 0 0 1 1 1 0 0 0 0 0 0 0 0 0 0 0 0 0 0 0 0 0
6 7 7 8 9 9 8 7 7 6 3 1 0 0 0 1 2 3 3 2 1 0 0 1 2 1 0 0 0 0 0 0 0 0 0 0 0 0 0 0 0 0 0
5 5 6 6 6 7 7 6 6 5 3 1 0 0 0 0 1 1 2 2 2 1 1 2 2 1 0 0 0 0 0 0 0 0 0 0 0 0 0 0 0 0 0
4 4 4 4 4 4 5 5 4 3 2 0 0 0 0 0 0 0 1 1 2 2 2 2 2 1 0 0 0 0 0 0 0 0 0 0 0 0 0 0 0 0 0
2 2 1 2 3 3 4 4 3 3 2 1 0 0 0 0 0 0 0 0 1 1 1 1 1 0 0 0 0 0 0 0 0 0 0 0 0 0 0 0 0 0 0
1 0 0 1 2 2 3 4 4 3 3 2 0 0 0 0 0 0 0 0 1 1 0 0 0 0 0 0 0 0 0 0 0 0 0 0 0 0 0 0 0 0 0
1 0 0 0 1 1 2 3 3 2 2 1 0 0 0 0 0 0 0 0 1 1 0 0 0 0 0 0 0 0 0 0 0 0 0 0 0 0 0 0 0 0 0
2 1 0 0 1 2 2 2 1 1 1 0 0 0 0 0 0 0 0 0 0 0 0 0 0 1 1 0 0 0 0 0 0 0 0 0 0 0 0 0 0 0 0
3 2 1 0 1 2 3 2 1 0 0 0 0 0 0 0 0 0 0 0 0 0 0 0 1 2 2 1 0 0 0 0 0 0 0 0 0 0 0 0 0 0 0
Wind_Speed
6 8 10 9 9 9 9 9 9 9 10 10 10 10 10 10 10 10 10 10 10 10 11 11 11 12 12 12 13 13 12 13 13 13 12 12 12 12 12 12 11 8 13
9 10 10 10 9 9 9 9 9 9 9 9 10 10 10 10 10 10 10 10 10 10 10 10 11 11 12 12 12 11 11 11 11 11 11 10 12 12 12 12 11 8 12
10 10 10 10 9 9 9 9 9 8 9 9 9 10 9 9 9 9 9 9 9 10 10 10 10 10 10 11 11 10 10 9 9 8 8 5 7 11 12 11 11 12 11
10 10 9 10 9 9 10 10 9 8 8 8 9 9 9 9 9 9 9 9 9 9 10 10 9 9 10 10 10 9 8 7 7 6 5 5 5 10 11 11 11 11 11
9 8 9 10 9 9 9 10 9 9 8 8 8 9 9 9 9 8 8 9 9 9 9 9 9 9 9 9 9 8 6 6 6 5 5 5 5 9 10 11 11 10 10
8 8 9 9 9 8 9 9 9 8 8 9 9 9 9 8 8 8 8 8 9 9 9 9 9 9 9 8 8 7 5 5 4 4 4 5 4 9 9 10 10 10 9
8 8 9 9 9 8 8 9 8 8 8 8 8 9 8 8 8 8 8 8 8 8 8 8 8 8 8 8 7 5 4 4 2 4 4 4 5 9 9 9 9 9 9
8 8 9 8 8 8 8 8 9 8 8 8 8 8 8 8 8 7 8 8 8 8 8 8 7 7 7 7 6 4 3 3 3 4 4 4 7 8 8 8 8 8 8
7 8 7 6 7 7 7 7 8 8 8 7 8 8 8 7 7 8 8 8 8 8 7 7 6 7 7 6 5 3 2 3 2 2 5 4 7 7 7 8 8 8 8
6 7 7 5 5 5 5 6 7 8 7 7 7 7 7 7 7 7 7 7 7 7 7 7 6 6 6 5 4 1 1 2 1 3 3 4 6 6 7 7 7 7 7
4 5 6 5 5 4 4 5 6 7 7 7 7 8 7 4 4 4 5 6 7 7 6 6 6 6 5 4 3 1 1 0 2 3 2 5 6 6 6 6 6 6 5
3 3 4 5 5 5 4 4 4 5 5 5 5 5 4 3 4 5 6 7 6 6 6 6 6 5 3 1 2 2 1 1 2 2 3 6 6 5 5 5 5 5 5
4 4 3 4 4 4 3 3 2 3 4 5 6 5 4 3 3 4 3 4 4 4 2 4 3 2 2 2 1 1 1 1 2 2 3 5 5 4 4 4 4 4 4
3 4 4 3 4 4 3 3 3 3 3 3 4 6 4 3 3 3 3 3 3 2 2 2 1 2 2 2 2 1 1 1 2 2 2 4 4 4 3 3 3 2 3
4 4 4 4 4 4 4 3 3 3 4 4 4 5 5 3 3 4 3 3 3 2 3 2 2 2 2 2 2 2 1 2 2 3 2 4 3 3 3 2 2 2 2
3 4 4 4 5 4 4 4 3 3 3 4 4 4 5 4 4 3 3 3 3 2 2 2 2 2 1 1 1 1 1 2 2 3 3 3 3 3 3 2 2 1 1
4 4 4 4 4 5 4 5 4 3 3 4 4 4 4 4 4 4 3 3 3 2 2 2 2 1 1 1 1 1 1 1 1 3 3 3 2 2 2 2 2 2 1
3 3 3 3 3 4 4 4 3 3 4 4 4 4 5 5 5 4 3 3 3 2 2 2 1 1 1 1 1 1 0 0 1 2 2 3 3 2 2 3 2 2 2
4 4 4 3 3 4 4 4 3 3 3 3 4 4 5 5 5 4 4 3 4 3 2 2 2 1 1 1 1 1 1 1 2 1 2 3 3 3 3 3 3 2 2
3 4 4 3 3 3 3 3 3 3 3 4 4 5 5 5 6 5 4 4 4 3 3 2 2 2 1 1 1 1 1 2 2 2 2 2 2 3 3 3 3 3 4
3 3 4 4 4 3 3 4 4 4 4 4 4 6 6 6 6 5 4 4 4 4 4 4 2 3 2 1 1 1 2 2 3 2 2 2 3 3 3 3 3 2 2
3 4 4 4 5 5 4 4 4 4 4 4 4 5 6 6 6 6 6 5 5 4 5 5 3 2 2 2 2 1 1 2 2 2 2 3 3 3 3 3 3 3 3
3 3 4 4 5 5 4 3 3 3 3 3 4 4 5 6 6 6 6 5 5 5 5 5 5 4 3 3 2 3 2 3 1 2 3 2 3 2 3 2 3 3 3
3 3 4 4 4 5 5 4 5 5 5 5 4 4 4 5 5 6 6 6 6 5 5 5 5 4 4 3 2 2 2 2 2 1 2 2 2 3 3 3 3 3 3
2 2 3 3 4 4 5 5 5 5 4 3 4 5 5 5 5 6 6 6 6 5 5 5 5 4 4 4 3 2 2 1 2 2 3 2 2 2 2 2 2 3 3
2 2 2 3 4 4 4 5 6 6 5 5 5 6 5 4 4 6 5 6 6 5 6 6 5 5 4 4 3 3 3 2 3 2 3 3 3 3 2 2 2 2 2
Wind_Direction
121 133 135 134 134 131 129 129 124 123 123 120 118 116 115 112 113 111 107 103 100 98 97 96 93 90 85 82 79 76 74 73 72 72 72 73 73 74 72 69 69 67 71
130 134 136 134 133 135 134 129 127 124 123 122 122 121 119 118 114 113 110 107 103 102 100 98 95 93 89 86 83 80 78 77 76 73 73 73 73 73 72 69 70 71 73
125 132 139 136 135 137 133 127 128 128 127 124 123 124 124 123 119 115 113 111 108 105 102 99 95 94 93 90 86 83 80 79 75 70 72 71 75 76 75 74 73 74 73
126 132 138 138 137 137 137 133 131 131 131 128 126 123 124 124 122 118 117 115 112 108 102 99 97 95 96 93 90 86 81 74 64 58 66 66 72 80 78 75 75 73 73
124 130 134 137 138 137 138 137 137 133 133 133 131 127 125 122 121 119 118 119 116 111 107 104 101 99 98 95 92 87 77 60 40 55 67 68 71 81 79 77 74 72 74
126 126 133 137 137 136 138 137 137 134 133 135 135 132 129 123 120 119 118 121 119 115 112 108 107 103 101 99 96 90 73 51 25 63 66 71 73 82 80 78 74 70 70
129 126 136 137 138 140 138 141 139 137 135 136 137 135 131 125 121 121 119 122 122 121 119 115 114 110 108 103 97 87 60 37 46 70 70 74 77 84 82 77 72 69 66
127 126 136 142 141 145 144 145 144 141 140 139 141 138 134 131 131 129 127 128 128 125 125 122 120 118 113 107 100 82 35 23 63 76 78 79 86 86 85 80 74 70 67
119 122 132 145 146 145 147 149 147 144 142 140 141 140 137 137 138 136 133 133 133 130 126 123 124 125 119 113 106 84 23 14 20 85 93 89 92 89 87 83 79 73 68
118 126 137 145 147 149 149 155 149 148 148 143 138 134 132 133 134 135 132 130 132 133 131 128 128 126 124 122 121 116 338 354 58 77 81 97 98 93 91 89 85 76 69
120 130 142 150 148 149 156 155 154 153 152 145 142 139 139 143 139 136 135 134 135 136 137 136 136 130 127 135 158 215 291 324 93 83 83 106 107 100 92 90 88 82 74
153 147 147 155 154 153 163 152 168 163 159 159 155 153 160 156 152 146 137 136 138 140 144 147 149 144 141 161 205 229 248 148 105 101 104 113 111 106 96 94 91 87 80
172 163 160 162 160 159 159 156 168 169 166 170 166 163 166 159 144 132 135 138 140 146 149 149 157 179 181 168 184 214 213 114 100 101 111 121 123 117 108 102 100 96 90
172 176 163 167 167 166 162 162 170 177 172 170 170 165 167 158 149 147 151 157 158 164 164 156 182 190 182 175 188 196 169 114 111 108 109 125 134 135 126 116 118 111 110
183 181 172 168 174 172 169 173 175 187 179 172 170 171 167 156 155 154 161 161 167 168 167 175 189 190 187 183 195 195 168 140 137 130 119 125 135 147 153 147 138 134 128
196 185 178 179 180 176 177 179 180 190 184 170 170 171 164 155 157 158 162 164 167 166 170 180 187 174 194 175 200 198 172 162 148 146 145 147 150 162 176 172 171 166 160
197 184 185 195 184 181 184 189 184 189 187 176 174 174 169 162 163 162 162 165 166 162 166 180 182 159 173 180 202 197 150 165 165 158 158 162 171 175 181 186 192 198 203
188 184 189 206 193 188 191 194 188 188 188 180 173 174 175 169 166 163 164 169 169 163 161 170 164 148 171 182 208 189 163 168 224 189 177 171 170 173 181 185 196 215 228
191 189 184 195 195 198 199 199 194 191 192 183 175 178 178 172 169 167 171 172 169 166 170 178 162 163 174 179 186 205 200 199 230 225 203 181 174 167 171 183 189 209 231
192 191 190 189 198 205 204 198 197 205 198 184 182 186 180 175 173 172 175 176 170 170 175 178 174 167 179 182 192 259 239 216 219 222 222 195 184 181 181 183 187 209 222
197 195 194 192 202 196 196 197 197 205 202 191 191 187 182 178 178 178 181 179 178 181 181 181 175 170 182 153 87 310 290 253 227 214 214 204 198 198 194 189 186 186 209
209 204 204 206 204 206 206 205 202 201 204 193 191 190 184 183 183 185 185 185 185 180 181 185 176 178 192 168 158 164 251 286 268 231 209 202 203 198 205 208 193 187 183
227 219 219 218 214 210 211 207 204 196 198 195 193 193 191 184 185 182 185 188 189 186 188 191 187 181 190 199 183 176 186 217 277 259 234 214 205 203 209 210 201 200 197
240 230 228 230 221 211 203 202 205 206 206 199 191 188 187 186 185 183 183 188 193 191 192 196 196 190 180 200 217 220 213 182 183 258 272 248 236 226 219 217 213 211 205
271 248 240 242 232 221 208 205 210 220 220 193 184 184 189 193 191 187 184 184 192 191 192 195 194 194 193 197 201 209 239 253 218 208 251 253 262 252 234 225 222 216 210
291 271 257 253 246 231 216 210 212 217 210 199 192 190 191 195 195 189 187 187 192 190 190 193 192 196 201 203 205 198 197 202 213 213 235 241 250 257 254 239 228 230 223